Regional Weather Roundup
Issued by NWS

Home | Current Version | Previous Version | Text Only | Print | Product List | Glossary Off
Versions: 1 2 3 4 5 6 7 8 9 10 11 12 13 14 15 16 17 18 19 20 21 22 23 24 25 26 27 28 29 30 31 32 33 34 35 36 37 38 39 40 41 42 43 44 45 46 47 48 49 50

000
ASUS43 KDMX 011807
RWRIA

WEATHER ROUNDUP FOR IOWA
NATIONAL WEATHER SERVICE DES MOINES IA
100 PM CDT MON JUN 01 2015

NOTE: "FAIR" INDICATES FEW OR NO CLOUDS BELOW 12,000 FEET WITH NO
SIGNIFICANT WEATHER AND/OR OBSTRUCTIONS TO VISIBILITY.

* - THESE STATIONS ARE NOT NWS STATIONS...THUS NOT UNDER NWS
QUALITY CONTROL.  THEY ALSO DO NOT REPORT WEATHER SUCH
AS PRECIPITATION OR FOG.

IAZ001>003-012>014-020>022-031>034-043>046-011900-
   NORTHWEST IOWA

CITY           SKY/WX    TMP DP  RH WIND       PRES   REMARKS
CARROLL *      MOSUNNY   68  48  49 S14       30.17S
CHEROKEE *     MOSUNNY   70  50  49 S12G21    30.15S
DENISON *      SUNNY     70  54  56 SE13G18   30.15S
LE MARS *      SUNNY     72  52  49 S15       30.13F
ORANGE CITY *  SUNNY     70  48  46 S15       30.13F
SHELDON *      SUNNY     70  45  40 SE17G23   30.13S
SIOUX CITY     SUNNY     72  51  47 S18G26    30.12F
6HR MIN TEMP:  52; 6HR MAX TEMP:  73;

SPENCER        SUNNY     71  48  43 SE10G20   30.15F
6HR MIN TEMP:  52; 6HR MAX TEMP:  71;

$$

IAZ055>058-069>071-079>083-090>094-011900-
   SOUTHWEST IOWA

CITY           SKY/WX    TMP DP  RH WIND       PRES   REMARKS
ATLANTIC *     MOSUNNY   68  50  52 SE7G15    30.17F
AUDUBON *      MOSUNNY   70  54  56 E9        30.18F
CLARINDA *     PTSUNNY   68  52  56 E6G14     30.19S
COUNCIL BLFS * MOSUNNY   70  55  60 S13G18    30.15F
CRESTON *      MOSUNNY   66  50  55 SE13      30.18F
HARLAN  *      MOSUNNY   68  52  56 SE12G17   30.19F
LAMONI         PTSUNNY   69  51  52 VRB5      30.18F
6HR MIN TEMP:  57; 6HR MAX TEMP:  69;

RED OAK *      PTSUNNY   66  52  59 SE10      30.17F
SHENANDOAH *   CLOUDY    68  54  60 E13       30.17F
$$

IAZ047>049-059>061-072>074-084-011900-
   CENTRAL IOWA

CITY           SKY/WX    TMP DP  RH WIND       PRES   REMARKS
AMES           SUNNY     67  45  45 SE9       30.19F
6HR MIN TEMP:  52; 6HR MAX TEMP:  68;

ANKENY *       SUNNY     66  46  48 VRB7G15   30.18F
CHARITON *     SUNNY     66  50  55 NE7       30.19S
DES MOINES     MOSUNNY   68  46  45 E6        30.18F
6HR MIN TEMP:  54; 6HR MAX TEMP:  69;

GRINNELL*      SUNNY     66  43  42 NE6       30.20F
KNOXVILLE *    SUNNY     66  45  45 VRB7      30.18F
MARSHALLTOWN   SUNNY     66  40  38 SE9       30.19F
6HR MIN TEMP:  49; 6HR MAX TEMP:  66;

PELLA *        SUNNY     67  50  53 E9        30.20F
PERRY *          N/A     67  47  47 SE6G16    30.18F
$$

IAZ004>006-015-016-023>025-035-036-011900-
   NORTH CENTRAL IOWA

CITY           SKY/WX    TMP DP  RH WIND       PRES   REMARKS
ALGONA *       SUNNY     68  45  42 SE10G20   30.18S
CLARION *      SUNNY     68  39  34 E8G17     30.19F
ESTHERVILLE    MOSUNNY   68  47  46 S14       30.17S
6HR MIN TEMP:  51; 6HR MAX TEMP:  68;

FORT DODGE *   SUNNY     68  50  52 SE7       30.19S
MASON CITY     SUNNY     66  43  43 SE10      30.21F
6HR MIN TEMP:  50; 6HR MAX TEMP:  66;

FOREST CITY *  SUNNY     63  43  48 SE6       30.20S
IOWA FALLS *     N/A     64  41  42 SE10      30.21F
$$

IAZ007>011-017>019-026>030-037>042-050>054-066-011900-
   NORTHEAST IOWA

CITY           SKY/WX    TMP DP  RH WIND       PRES   REMARKS
CEDAR RAPIDS   SUNNY     65  47  52 E15       30.19F
6HR MIN TEMP:  49; 6HR MAX TEMP:  66;

CHARLES CITY * SUNNY     64  37  36 E9G15     30.22F
CLINTON *      SUNNY     64  43  45 E13       30.23F
DECORAH *      SUNNY     63  37  39 SE9G16    30.23S
DUBUQUE        SUNNY     65  36  34 E10       30.22F
6HR MIN TEMP:  45; 6HR MAX TEMP:  65;

MONTICELLO *   SUNNY     64  41  42 E8G16     30.21F
OELWEIN *      SUNNY     66  41  39 SE12G20   30.22F
WATERLOO       SUNNY     66  42  41 E8G17     30.20F
6HR MIN TEMP:  48; 6HR MAX TEMP:  66;

$$

IAZ064-065-067-068-078-011900-
   EAST CENTRAL IOWA

CITY           SKY/WX    TMP DP  RH WIND       PRES   REMARKS
DAVENPORT      SUNNY     67  42  40 E10       30.20F
6HR MIN TEMP:  51; 6HR MAX TEMP:  67;

IOWA CITY      SUNNY     66  44  45 E9        30.21F
6HR MIN TEMP:  50; 6HR MAX TEMP:  66;

MT. PLEASANT * MOSUNNY   66  45  45 E12       30.19F
MUSCATINE *    PTSUNNY   68  43  40 NE10G16   30.20S
QUAD CITIES    MOSUNNY   65  42  43 VRB7      30.19F
6HR MIN TEMP:  53; 6HR MAX TEMP:  66;

$$

IAZ062-063-075>077-085>089-095>099-011900-
   SOUTHEAST IOWA

CITY           SKY/WX    TMP DP  RH WIND       PRES   REMARKS
BURLINGTON     MOSUNNY   67  49  52 E8        30.18F
6HR MIN TEMP:  54; 6HR MAX TEMP:  67;

FAIRFIELD *    CLOUDY    64  48  55 SE8G16    30.20S
FORT MADISON *   N/A     64  52  63 E7        30.20S
KEOKUK *       CLOUDY    63  52  67 NE10      30.18F
OSKALOOSA *      N/A     66  48  52 E5        30.20S
CENTERVILLE *  SUNNY     63  63 100 E8        30.20F
OTTUMWA        MOSUNNY   66  50  56 E8        30.19F
6HR MIN TEMP:  51; 6HR MAX TEMP:  66;

WASHINGTON *   CLOUDY    68  46  45 E7G13     30.21S
$$

ABBREVIATIONS USED IN REMARKS
   TC - TEMPERATURES IN CELSIUS
  WCI - WIND CHILL INDEX
   HX - HEAT INDEX
  VSB - VISIBILITY
$$




USA.gov is the U.S. government's official web portal to all federal, state and local government web resources and services.